STARLINK-1795, 46696

Orbit data source: Space-Track

STARLINK-1795, 46696 is a payload satellite owned by SpaceX/Seattle (US) in LEO that was launched on Sun, 18 Oct 2020 UTC via an FALCON 9 launch vehicle from the Air Force Eastern Test Range (AFETR). Payload-class satellites include a variety of spacecraft equipped with specific instruments for various scientific and technological missions. These include communications satellites like Starlink; space stations such as the ISS; scientific satellites like the Hubble; Earth observation satellites from companies like Planet Labs, Umbra, and HawkEye 360; GPS; miniature CubeSats for education and research; and military/defense satellites.

Loading next visibility...
Identifier
46696, 2020-073AC
Orbit
LEO
Country
Flag of USUS
Related business
Manufacturer
SpaceX/Seattle
Mission
Partially operational Commercial Communications
Bus & Motor
STARLINK, Unknown motor
Mass
260 kg wet, ~248 kg dry
Launch date (UTC)
2020-10-18 (5 years ago)
Launch vehicle
FALCON 9
Launch site
Air Force Eastern Test Range (AFETR)
Object type
Payload
Rocket body
Debris
Shape & HBR
Box + 1 Pan, 10.1 m
Radar Cross Section
13.562 m², Large (>1 m²)

Expand to show TLE details & history
Last TLE update: 6 hours ago

TLE from 6 hours ago
0 STARLINK-1795
1 46696U 20073AC  26038.00002315  .00161929  00000-0  20506-2 0  9996
2 46696  53.0476 331.0143 0006214  50.7612 301.1313 15.58439180  5839
Epoch: 2026-02-07T00:00Z
TLE epoch observation values (Epoch: 2026-02-07T00:00:02.000Z)
Latitude
-6.64018°
Longitude
-171.11972°
Altitude
391.999 km
Speed
7.677 km/s
True Right ascension
21h 44m 04s
True Declination
-6° 35' 55"
Sunlit
Object was in daylight at epoch
Visualization orbit readout
Latitude
Unknown
Longitude
Unknown
Altitude
Unknown
Speed
Unknown
Apparent Right ascension
Unknown
Apparent Declination
Unknown
Sunlit
N/A
Visualization observer readout
Local Sidereal Time
08:32:29
Azimuth
Unknown
Elevation
Unknown
Doppler factor
Unknown
Orbital elements
Apogee altitude
396.659 km
Perigee altitude
388.244 km
Semi-major axis
6,770.589 km
Eccentricity
0.00062
Inclination
53.0476°
RAAN
331.0143°
Arg. of periapsis
50.7612°
True anomaly
301.07032°
Mean anomaly
301.1313°
Eccentric anomaly
301.10081°
Mean motion
3.89586 °/min
Orbital period
92.41 mins
BSTAR
0.0020506
Loading maneuver chart data...
Computing Atmospheric mass density...

Documentation

Showing up to 5 results
|